星链-34439 (STARLINK-34439)

导读

STARLINK-34439是美国SpaceX星链星座的成员,于2025年6月18日发射升空。星链项目旨在搭建全球覆盖的卫星互联网星座,为偏远地区、海上以及高空等场景提供高速低时延网络服务。作为系统扩容的卫星之一,它进一步完善了星链低轨星座的部署,提升星座的网络覆盖能力与服务稳定性,推进全球卫星互联网络的构建。

Basic Information
目录编号:
64458
目录名称:
STARLINK-34439
国际标识:
2025-130W
轨道中心:
EARTH
卫星名称:
星链-34439
卫星全名:
星链-34439 (STARLINK-34439)
卫星状态:
在轨 (已飞行452 天)
发射日期:
2025-06-18 UTC
国别 :
美国 (US)
星等 :
--
This satellite is enrolled in the Space Conjunction Data Service (SCDS) and the current flight risk assessment level is: High Risk
Orbit Information
数据来源 国际轨道数据
星历时间: 2026-09-12T10:45:31+0800
21小时前
查看轨道信息
半长轴: 6840.879km
偏心率: 0.0001135
轨道倾角: 53.158°
近地点辐角 90.695°
升交点赤经 300.623°
平近点角 269.418°
近地点: 461.965km
远地点: 463.519km
周期: 93.849分钟
每日圈数: 15.34387
Detailed Information
固有亮度:
5
最大亮度:
2.5
卫星平台:
Starlink V1.0
覆盖范围:
全球
运营商:
太空探索技术公司
运营商所在国:
美国
制造商(研发单位):
太空探索技术公司
制造商所在国:
美国
使用方式:
暂无
Satellite Introduction
Starlink 计划是 SpaceX 推出的全球卫星互联网项目,通过发射低轨道卫星,为全球尤其是偏远地区提供高速、低延迟的互联网服务。自 2019 年起,Starlink 已部署数千颗卫星,旨在缩小全球数字鸿沟,推动互联网普及。该项目还为军事、航空等行业提供通信支持,带来广泛经济效益。
2D Orbit Map
3D Orbit Map
Orbit Altitude Analysis Chart
Orbit Inclination Analysis Chart
Orbit Comprehensive Analysis Chart
View Comprehensive Chart
Conjunction Data List
Event ID Objects TCA Miss Dist (km) Collision Risk Probability Collision Risk Index (CRI) Action
CDM_260914-231506-445806-593221
2026-09-14T
23:15:45+0000
0.255 km
中距离
4.842935E-4 高风险 0.89
CDM_260915-004906-445806-593221
2026-09-15T
00:49:33+0000
1.359 km
极远距离
5.962287E-6 低风险 0.51
CDM_260915-045604-582306-445821
2026-09-15T
04:56:09+0000
1.075 km
极远距离
3.446568E-6 低风险 0.46
CDM_260914-214106-445806-593221
2026-09-14T
21:41:58+0000
1.690 km
极远距离
2.995918E-6 低风险 0.45
CDM_260913-002405-083106-445821
2026-09-13T
00:24:36+0000
2.814 km
极远距离
1.123107E-6 低风险 0.36
CDM_260915-022306-445806-593221
2026-09-15T
02:23:20+0000
2.894 km
极远距离
9.667586E-7 极低风险 0.35
CDM_260913-072305-317306-445821
2026-09-13T
07:23:12+0000
2.939 km
极远距离
9.03253E-7 极低风险 0.34
Miss Distance Evolution Trend with All Objects
Collision Probability Evolution Trend with All Objects